Knox Cnty, Mount Vernon, OH, OH

5:35 AM EDT on October 14, 2019 (GMT -0400)
Knox Cnty, Mount Vernon, OH

Weather History for K4I3 - June, 2019

Change the Weather History Date:

Thursday, June 6, 2019

  Actual Average (KVTA) Record (KVTA)
Temperature  
Mean Temperature 70 °F -  
Max Temperature 78 °F 79 °F 91 °F (1988)
Min Temperature 62 °F 55 °F 36 °F (1945)
Cooling Degree Days 5    
Growing Degree Days 20 (Base 50)    
Moisture  
Dew Point 65 °F    
Average Humidity 89    
Maximum Humidity 100    
Minimum Humidity 65    
Precipitation  
Precipitation 0.10 in - - ()
Sea Level Pressure  
Sea Level Pressure 29.89 in    
Wind  
Wind Speed 3 mph (NNE)    
Max Wind Speed 9 mph    
Max Gust Speed -    
Visibility 9 miles    
Events Rain    
Averages and records for this station are not official NWS values.
T = Trace of Precipitation, MM = Missing Value Source: NWS Daily Summary

Daily Weather History Graph

Daily Weather History Graph

Search for Another Location

Airport or City:

Astronomy

Jun. 06, 2019 Rise Set
Actual Time 6:00 AM EDT 8:57 PM EDT
Civil Twilight 5:28 AM EDT 9:29 PM EDT
Nautical Twilight 4:46 AM EDT 10:11 PM EDT
Astronomical Twilight 3:58 AM EDT 10:59 PM EDT
Moon 9:08 AM EDT (6/6) No Moon Set
Length of Visible Light 16h 01m
Length of Day
14h 56m
Waxing Crescent, 13% of the Moon is Illuminated
Jun 6
Waxing Crescent
Jun 10
First Quarter
Jun 17
Full
Jun 25
Last Quarter
Jul 2
New

Hourly Weather History & Observations

Time (EDT) Temp. Dew Point Humidity Pressure Visibility Wind Dir Wind Speed Gust Speed Precip Events Conditions
12:16 AM 64.4 °F 64.4 °F 100% 29.81 in 10.0 mi Calm Calm - N/A Rain Light Rain
12:36 AM 62.6 °F 62.6 °F 100% 29.80 in 10.0 mi Calm Calm - N/A   Clear
12:55 AM 62.6 °F 62.6 °F 100% 29.80 in 10.0 mi West 3.5 mph - N/A   Clear
1:16 AM 64.4 °F 64.4 °F 100% 29.81 in 10.0 mi WSW 3.5 mph - N/A   Clear
1:35 AM 62.6 °F 62.6 °F 100% 29.80 in 10.0 mi Calm Calm - N/A   Clear
1:55 AM 62.6 °F 62.6 °F 100% 29.81 in 2.5 mi Calm Calm - N/A   Clear
2:15 AM 62.6 °F 62.6 °F 100% 29.82 in 7.0 mi WSW 3.5 mph - N/A   Clear
2:36 AM 62.6 °F 62.6 °F 100% 29.82 in 10.0 mi West 5.8 mph - N/A   Clear
2:55 AM 62.6 °F 62.6 °F 100% 29.82 in 10.0 mi West 6.9 mph - N/A   Clear
3:15 AM 62.6 °F 62.6 °F 100% 29.82 in 10.0 mi West 6.9 mph - N/A   Clear
3:35 AM 62.6 °F 62.6 °F 100% 29.82 in 10.0 mi West 4.6 mph - N/A   Clear
4:15 AM 64.4 °F 64.4 °F 100% 29.82 in 10.0 mi NW 5.8 mph - N/A   Clear
4:35 AM 62.6 °F 62.6 °F 100% 29.82 in 10.0 mi Calm Calm - N/A   Clear
4:56 AM 62.6 °F 62.6 °F 100% 29.82 in 5.0 mi Calm Calm - N/A   Clear
5:15 AM 62.6 °F 62.6 °F 100% 29.83 in 7.0 mi NNW 3.5 mph - N/A   Mostly Cloudy
5:36 AM 64.4 °F 64.4 °F 100% 29.83 in 4.0 mi Calm Calm - N/A   Overcast
5:55 AM 62.6 °F 62.6 °F 100% 29.84 in 2.5 mi NW 4.6 mph - N/A   Overcast
6:15 AM 64.4 °F 64.4 °F 100% 29.85 in 4.0 mi NNW 4.6 mph - N/A   Overcast
6:36 AM 64.4 °F 64.4 °F 100% 29.85 in 5.0 mi NW 5.8 mph - N/A   Overcast
6:56 AM 64.4 °F 64.4 °F 100% 29.85 in 5.0 mi NNW 4.6 mph - N/A   Overcast
7:15 AM 64.4 °F 64.4 °F 100% 29.87 in 5.0 mi Calm Calm - N/A   Overcast
7:36 AM 64.4 °F 64.4 °F 100% 29.87 in 7.0 mi North 5.8 mph - N/A   Overcast
7:55 AM 64.4 °F 64.4 °F 100% 29.88 in 7.0 mi North 4.6 mph - N/A   Overcast
8:15 AM 64.4 °F 64.4 °F 100% 29.89 in 5.0 mi Calm Calm - N/A   Overcast
8:35 AM 64.4 °F 64.4 °F 100% 29.89 in 7.0 mi NNE 4.6 mph - N/A   Overcast
8:56 AM 64.4 °F 64.4 °F 100% 29.90 in 7.0 mi NNE 4.6 mph - N/A   Overcast
9:15 AM 64.4 °F 64.4 °F 100% 29.91 in 7.0 mi North 4.6 mph - N/A   Overcast
9:35 AM 64.4 °F 64.4 °F 100% 29.91 in 7.0 mi NNE 6.9 mph - N/A   Overcast
9:55 AM 66.2 °F 64.4 °F 94% 29.91 in 10.0 mi North 3.5 mph - N/A   Overcast
10:14 AM 66.2 °F 64.4 °F 94% 29.91 in 10.0 mi North 4.6 mph - N/A   Overcast
10:15 AM 66.2 °F 64.4 °F 94% 29.91 in 10.0 mi North 5.8 mph - N/A   Overcast
10:35 AM 68.0 °F 64.4 °F 88% 29.92 in - NNW 5.8 mph - 0.10 in   Overcast
10:55 AM 68.0 °F 64.4 °F 88% 29.92 in 10.0 mi ENE 3.5 mph - 0.10 in   Overcast
11:18 AM 69.8 °F 64.4 °F 83% 29.93 in 10.0 mi Calm Calm - N/A   Mostly Cloudy
11:36 AM 69.8 °F 64.4 °F 83% 29.94 in 10.0 mi ESE 3.5 mph - N/A   Mostly Cloudy
11:55 AM 69.8 °F 64.4 °F 83% 29.94 in 10.0 mi Calm Calm - N/A   Overcast
12:15 PM 71.6 °F 66.2 °F 83% 29.94 in 10.0 mi Calm Calm - N/A   Overcast
12:39 PM 71.6 °F 66.2 °F 83% 29.94 in 10.0 mi East 4.6 mph - N/A   Mostly Cloudy
12:58 PM 73.4 °F 64.4 °F 73% 29.94 in 10.0 mi East 3.5 mph - N/A   Mostly Cloudy
1:16 PM 73.4 °F 64.4 °F 73% 29.94 in 10.0 mi North 4.6 mph - N/A   Mostly Cloudy
1:35 PM 73.4 °F 66.2 °F 78% 29.94 in 10.0 mi Calm Calm - N/A   Mostly Cloudy
1:55 PM 75.2 °F 66.2 °F 73% 29.94 in 10.0 mi SSE 3.5 mph - N/A   Scattered Clouds
2:19 PM 75.2 °F 66.2 °F 73% 29.93 in 10.0 mi Calm Calm - N/A   Scattered Clouds
2:37 PM 77.0 °F 66.2 °F 69% 29.92 in 10.0 mi North 4.6 mph - N/A   Scattered Clouds
2:56 PM 75.2 °F 66.2 °F 73% 29.92 in 10.0 mi East 4.6 mph - N/A   Scattered Clouds
3:15 PM 77.0 °F 68.0 °F 74% 29.92 in 10.0 mi NNE 4.6 mph - N/A   Scattered Clouds
3:35 PM 78.8 °F 66.2 °F 65% 29.92 in 10.0 mi NE 5.8 mph - N/A   Scattered Clouds
3:59 PM 78.8 °F 66.2 °F 65% 29.91 in 10.0 mi ENE 6.9 mph - N/A   Scattered Clouds
4:17 PM 78.8 °F 66.2 °F 65% 29.91 in 10.0 mi East 3.5 mph - N/A   Scattered Clouds
4:35 PM 77.0 °F 66.2 °F 69% 29.91 in 10.0 mi ENE 6.9 mph - N/A   Mostly Cloudy
4:55 PM 77.0 °F 66.2 °F 69% 29.91 in 10.0 mi ENE 8.1 mph - N/A   Scattered Clouds
5:15 PM 77.0 °F 66.2 °F 69% 29.91 in 10.0 mi ENE 3.5 mph - N/A   Scattered Clouds
5:39 PM 77.0 °F 66.2 °F 69% 29.91 in 10.0 mi NE 5.8 mph - N/A   Clear
5:57 PM 75.2 °F 66.2 °F 73% 29.91 in 10.0 mi NE 4.6 mph - N/A   Clear
6:15 PM 77.0 °F 68.0 °F 74% 29.91 in 10.0 mi NE 5.8 mph - N/A   Clear
6:35 PM 75.2 °F 66.2 °F 73% 29.90 in 10.0 mi NNE 3.5 mph - N/A   Clear
6:55 PM 75.2 °F 66.2 °F 73% 29.90 in 10.0 mi NE 6.9 mph - N/A   Clear
7:19 PM 73.4 °F 66.2 °F 78% 29.91 in 7.0 mi NE 8.1 mph - N/A   Clear
7:37 PM 71.6 °F 66.2 °F 83% 29.90 in 10.0 mi NE 9.2 mph - N/A   Clear
7:55 PM 71.6 °F 66.2 °F 83% 29.91 in 10.0 mi NE 9.2 mph - N/A   Clear
8:15 PM 69.8 °F 64.4 °F 83% 29.92 in 10.0 mi NE 8.1 mph - N/A   Clear
8:35 PM 69.8 °F 64.4 °F 83% 29.92 in 10.0 mi NE 8.1 mph - N/A   Clear
8:59 PM 68.0 °F 64.4 °F 88% 29.93 in 10.0 mi NE 6.9 mph - N/A   Clear
9:17 PM 68.0 °F 64.4 °F 88% 29.94 in 10.0 mi NE 8.1 mph - N/A   Clear
9:35 PM 66.2 °F 64.4 °F 94% 29.94 in 10.0 mi NE 8.1 mph - N/A   Clear
9:55 PM 66.2 °F 64.4 °F 94% 29.95 in 10.0 mi NE 5.8 mph - N/A   Clear
10:15 PM 64.4 °F 64.4 °F 100% 29.95 in 10.0 mi NE 6.9 mph - N/A   Clear
10:39 PM 64.4 °F 62.6 °F 94% 29.95 in 10.0 mi NNE 5.8 mph - N/A   Clear
10:57 PM 62.6 °F 62.6 °F 100% 29.95 in 10.0 mi North 5.8 mph - N/A   Clear
11:15 PM 62.6 °F 62.6 °F 100% 29.95 in 10.0 mi North 4.6 mph - N/A   Clear
11:35 PM 62.6 °F 62.6 °F 100% 29.95 in 10.0 mi North 5.8 mph - N/A   Clear
11:36 PM 62.6 °F 62.6 °F 100% 29.95 in 10.0 mi North 5.8 mph - N/A   Clear
11:55 PM 62.6 °F 62.6 °F 100% 29.95 in 7.0 mi NNE 4.6 mph - N/A   Clear